Flag for Bulgaria Weather past 2 weeks in Plovdiv, Bulgaria

Now
70 °F

Partly cloudy.


Feels Like: 70 °F
Forecast: 65 / 88 °F
Wind: 8 mph from West

Location: Plovdiv Airport

Current Time: Jul 28, 2014 at 11:42:17 PM

Latest Report: Jul 28, 2014 at 11:00 PM


Visibility: N/A

Pressure: 29.89 "Hg

Humidity: 88%

Dew point: 66 °F

Location of PlovdivLocation

Historic Weather in Plovdiv — Graph

°F

Plovdiv temperature yesterday

Maximum temperature yesterday: 84 °F (at 2:00 PM)
Minimum temperature yesterday: 66 °F (at 6:00 AM)
Average temperature yesterday: 76 °F

Past Weeks' High & Low Weather Summary

 TemperatureHumidityPressure
High90 °F (Jul 21, 4:00 PM)100% (Jul 14, 1:00 PM)30.01 "Hg (Jul 14, 1:00 PM)
Low63 °F (Jul 15, 3:00 AM)33% (Jul 21, 5:00 PM)29.71 "Hg (Jul 23, 6:00 PM)
Average73 °F75%29.90 "Hg
* Reported Jul 13 11:00 PM — Jul 28 11:00 PM, Plovdiv, Weather by CustomWeather, © 2014

Note: Actual official high and low records may vary slightly from our data, if they occured in-between our weather recording intervals... More about our weather records

Advertising

Plovdiv weather history for previous 24 hours

 ConditionsComfort  
Time TempWeatherWind HumidityBarometerVisibility
11:00 PM
Jul 28
70 °FPartly cloudy.8 mph88%29.89 "HgN/A
10:00 PM73 °FPassing clouds.6 mph89%29.83 "HgN/A
9:00 PM75 °FSunny.6 mph89%29.80 "Hg10 mi
8:00 PM77 °FSunny.3 mph89%29.80 "Hg10 mi
7:00 PM79 °FSunny.3 mph79%29.80 "Hg10 mi
6:00 PM81 °FPassing clouds.6 mph70%29.80 "HgN/A
5:00 PM73 °FThunderstorms. Broken clouds.8 mph83%29.86 "HgN/A
4:02 PM70 °FStrong thunderstorms. Cloudy.29 mph100%29.86 "Hg1 mi
3:00 PM82 °FThunderstorms. Broken clouds.6 mph70%29.86 "HgN/A
2:00 PM84 °FScattered clouds.8 mph66%29.89 "HgN/A
1:00 PM81 °FScattered clouds.6 mph70%29.92 "HgN/A
12:00 PM79 °FScattered clouds.6 mph74%29.92 "HgN/A
11:00 AM77 °FPassing clouds.6 mph79%29.95 "HgN/A
10:00 AM73 °FPassing clouds.3 mph89%29.95 "HgN/A
9:04 AM72 °FSprinkles. Scattered clouds.1 mph88%29.95 "Hg4 mi
9:00 AM72 °FScattered clouds.3 mph88%29.95 "Hg5 mi
8:00 AM68 °FFog.6 mph100%29.95 "Hg2 mi
7:00 AM68 °FPassing clouds.8 mph100%29.95 "Hg3 mi
6:00 AM68 °FClear.6 mph94%29.95 "Hg10 mi
5:00 AM68 °FPassing clouds.6 mph88%29.95 "HgN/A
4:00 AM68 °FClear.3 mph88%29.95 "Hg10 mi
3:00 AM70 °FClear.10 mph88%29.95 "Hg10 mi
2:00 AM73 °FPassing clouds.6 mph74%29.92 "HgN/A
1:00 AM73 °FClear.8 mph74%29.95 "Hg10 mi
12:00 AM75 °FClear.10 mph74%29.92 "Hg10 mi
11:00 PM
Jul 27
77 °FClear.8 mph74%29.92 "Hg10 mi
Weather by CustomWeather, © 2014

See weather overviewHow to use our weather pages